Tracking 26308 objects as of 30-Nov-2022
HD Live streaming from Space Station
objects crossing your sky now

COSMOS 1408 DEB

Track COSMOS 1408 DEB now!
10-day predictions


NORAD ID: 51315
Int'l Code: 1982-092BEG
Perigee: 391.1 km
Apogee: 401.2 km
Inclination: 82.5 °
Period: 92.3 minutes
Semi major axis: 6767 km
RCS: Unknown
Launch date: September 16, 1982
Source: Commonwealth of Independent States (former USSR) (CIS)
Launch site: PLESETSK MISSILE AND SPACE COMPLEX (PKMTR)

Note: This is SATELLITE DEBRIS
aabbcc
Your satellite tracking list
Your tracking list is empty




NASA's NSSDC Master Catalog

Two Line Element Set (TLE):
1 51315U 82092BEH 22333.77979665  .00119742  00000-0  14887-2 0  9999
2 51315  82.4892  96.0036 0007495 125.5105 234.6851 15.59525992 49620
Source of the keplerian elements: AFSPC